IW1CGW-23 Weather Reports


Display with metric or nautical units.
time (UTC)temp
F
wind
direction
speed
MPH
gust
MPH
rain 1hr
in
rain 24hr
in
rain mn
in
humidity
%
barometer
mb
20260505232942 57 0.0 0.0 0.00 0.00 0.00 91 1011.8
20260505231640 57 0.0 0.0 0.00 0.00 0.00 91 1012.0
20260505230339 57 0.0 0.0 0.00 0.00 0.00 91 1012.0
20260505223742 57 0.0 0.0 0.00 0.00 0.00 90 1011.3
20260505222435 57 0.0 0.0 0.00 0.00 0.00 90 1011.5
20260505221134 57 0.0 0.0 0.00 0.00 0.00 90 1011.9
20260505215833 57 0.0 0.0 0.00 0.00 0.00 90 1012.1
20260505214531 57 0.0 0.0 0.00 0.00 0.00 90 1012.4
20260505213230 57 0.0 0.0 0.00 0.00 0.00 90 1013.0
20260505211929 57 0.0 0.0 0.00 0.00 0.00 90 1012.9
20260505200120 57 0.0 0.0 0.00 0.00 0.00 89 1013.2
20260505193518 58 0.0 0.0 0.00 0.00 0.00 88 1012.8
20260505185613 60 0.0 0.0 0.00 0.00 0.00 86 1012.4
20260505184312 60 0.0 0.0 0.00 0.00 0.00 86 1012.5
20260505181713 61 0.0 0.0 0.00 0.00 0.00 85 1012.4
20260505175103 61 0.0 0.0 0.00 0.00 0.00 85 1012.5
20260505173801 61 0.0 0.0 0.00 0.00 0.00 84 1012.6
20260505172458 61 0.0 0.0 0.00 0.00 0.00 84 1012.7
20260505171156 62 0.0 0.0 0.00 0.00 0.00 84 1012.7
20260505165916 62 0.0 0.0 0.00 0.00 0.00 84 1012.9
20260505164551 62 0.0 0.0 0.00 0.00 0.00 84 1013.0
20260505163248 62 0.0 0.0 0.00 0.00 0.00 83 1012.9
20260505160641 63 0.0 0.0 0.00 0.00 0.00 83 1012.9
20260505152738 62 0.0 0.0 0.00 0.00 0.00 83 1013.1
20260505123750 62 0.0 0.0 0.00 0.00 0.00 88 1013.6
20260505122447 62 0.0 0.0 0.00 0.00 0.00 88 1013.6
20260505094808 61 0.0 0.0 0.00 0.00 0.00 91 1013.6
20260505090901 61 0.0 0.0 0.00 0.00 0.00 90 1013.4
20260505085558 61 0.0 0.0 0.00 0.00 0.00 90 1013.4
20260505082953 60 0.0 0.0 0.00 0.00 0.00 89 1013.2
20260505081651 61 0.0 0.0 0.00 0.00 0.00 89 1013.1
20260505080348 61 0.0 0.0 0.00 0.00 0.00 89 1013.0
20260505072438 61 0.0 0.0 0.00 0.00 0.00 90 1012.9
20260505071135 60 0.0 0.0 0.00 0.00 0.00 90 1012.9
20260505065833 62 0.0 0.0 0.00 0.00 0.00 88 1012.9
20260505064529 62 0.0 0.0 0.00 0.00 0.00 88 1012.5
20260505061926 66 0.0 0.0 0.00 0.00 0.00 89 1012.2
20260505055316 62 0.0 0.0 0.00 0.00 0.00 90 1012.1
20260505054012 65 0.0 0.0 0.00 0.00 0.00 89 1012.0
20260505052708 66 0.0 0.0 0.00 0.00 0.00 91 1011.8
20260505050125 57 0.0 0.0 0.00 0.00 0.00 93 1011.5
20260505034258 57 0.0 0.0 0.00 0.00 0.00 92 1011.5
20260505032956 58 0.0 0.0 0.00 0.00 0.00 92 1011.5
20260505031721 57 0.0 0.0 0.00 0.00 0.00 92 1011.7
20260505030355 57 0.0 0.0 0.00 0.00 0.00 92 1011.7
20260505023752 57 0.0 0.0 0.00 0.00 0.00 91 1012.6
20260505015849 57 0.0 0.0 0.00 0.00 0.00 89 1013.0
20260505014548 57 0.0 0.0 0.00 0.00 0.00 89 1012.7
20260505013247 57 0.0 0.0 0.00 0.00 0.00 89 1012.5
20260505012010 57 0.0 0.0 0.00 0.00 0.00 89 1012.7
20260505005344 58 0.0 0.0 0.00 0.00 0.00 86 1013.7
20260505004043 57 0.0 0.0 0.00 0.00 0.00 86 1013.9
20260505002742 58 0.0 0.0 0.00 0.00 0.00 84 1013.9
20260505001440 59 0.0 0.0 0.00 0.00 0.00 83 1014.1